Location: George Washington National Forest Helicopter Landing Site
(38.6463°N, 79.0851°W)
Time: 15:20:42
(UTC-04:00)

Tiros 1 - Pass Details

Date: 29 August 2019
Orbit: 630 x 664 km, 48.4° (Epoch: 18 October)

Event Time Altitude Azimuth Distance (km) Brightness Sun altitude
Exits shadow 03:19:44 18° 78° (ENE) 1,582 9.6 -34.1°
Drops below altitude 10° 03:21:03 10° 87° (E) 2,025 10.1 -34.0°
Sets 03:23:33 0° 96° (E) 2,939 10.9 -33.7°
